Location: St. Louis
(38.6270°N, 90.1994°W)
Time: 01:51:36
(UTC-06:00)

Courier 1B Rocket - Pass Details

Date: 02 December 2021
Orbit: 920 x 1202 km, 28.2° (Epoch: 16 January)

Event Time Altitude Azimuth Distance (km) Brightness Sun altitude
Rises 23:31:05 0° 238° (WSW) 3,609 - -73.0°
Reaches altitude 10° 23:34:06 10° 227° (SW) 2,636 - -73.1°
Maximum altitude 23:39:21 28° 171° (S) 1,642 - -73.3°
Drops below altitude 10° 23:44:34 10° 113° (ESE) 2,605 - -73.5°
Sets 23:47:31 0° 103° (ESE) 3,559 - -73.5°
